Find Local Weather

World > North America > United States > Washington

Tacoma, Washington Regional Weather

Lat: 47.25N, Lon: 122.44W
Wx Zone: WAZ509
Feedback
Expires:201809211000;;975566
ASUS46 KSEW 210910
RWRWA 

WASHINGTON REGIONAL WEATHER ROUNDUP
NATIONAL WEATHER SERVICE SEATTLE WA
200 AM PDT FRI SEP 21 2018

NOTE:"FAIR" INDICATES FEW OR NO CLOUDS BELOW 12,000 FEET WITH NO 
SIGNIFICANT WEATHER AND/OR OBSTRUCTIONS TO VISIBILITY.


WAZ507-509-555>559-211000-
SEATTLE, TACOMA, EVERETT, AND VICINITY
  
CITY           SKY/WX    TMP DP  RH WIND       PRES   REMARKS
EVERETT        MOCLDY    59  50  72 SE14G22   30.03F                  
BOEING FIELD   MOCLDY    60  51  72 SE7       30.04F                  
RENTON         FAIR      60  51  72 E5        30.04F                  
SEATAC AIRPORT CLOUDY    60  51  72 S9        30.05F                  
JBLM-MCCHORD   NOT AVBL                                               
PUYALLUP       FAIR      57  54  88 CALM      30.06F                  
BREMERTON      CLOUDY    56  51  84 S7        30.04F                  
JBLM-FT LEWIS  NOT AVBL                                               
TACOMA NARROWS CLOUDY    59  51  75 S6        30.05F                  
$$
 

SKY/WX - Weather  TMP - Temperature  DP - Dew Point  RH - Relative Humidity
WIND - Wind Direction/Speed PRES - Barometric Pressure